Погода в Петре

Иордания     30°19′44″N   35°26′51″E
темп.,
°C
ветер,
м/с
пор.,
м/с
влажн.,
%
обл.,
%
осадки,
мм/ч
давл.,
гПа
погр.,
м
17 июня, чт
чт1700:00+14зсз47610 0.0 1017160
03:00+12зсз45720 0.0 101787
06:00+11зсз22540 0.0 101716
09:00+18зсз11240 0.0 1017344
12:00+23зсз42230 0.0 1016777
15:00+25зсз53230 0.0 1015751
18:00+22сз55320 0.0 1015483
21:00+17сз34560 0.0 1017217
18 июня, пт
пт1800:00+15сз22560 0.0 101736
03:00+14сз22590 0.0 101613
06:00+13сз11470 0.0 101511
09:00+20сз21250 0.0 1014318
12:00+25зсз42250 0.0 1013900
15:00+25зсз54240 0.0 1012589
18:00+23сз44260 0.0 1012453
21:00+18сз34570 0.0 1014206
19 июня, сб
сб1900:00+16сз33630 0.0 101452
03:00+14зсз22650 0.0 101433
06:00+14сз22570 0.0 101418
09:00+20сз21210 0.0 1013273
12:00+26з33190 0.0 10111005
15:00+26зсз54260 0.0 1011626
18:00+23сз55270 0.0 1011465
21:00+18сз46600 0.0 1013281
20 июня, вс
вс2000:00+16сз22690 0.0 101465
03:00+16зсз22630 0.0 101327
06:00+15зсз11340 0.0 101311
09:00+22з11180 0.0 1012335
12:00+28зюз45160 0.0 10111480
15:00+26зсз55210 0.0 1010667
18:00+24зсз66220 0.0 1011557
21:00+19сз45410 0.0 1013201
21 июня, пн
пн2100:00+17зсз34410 0.0 101364
03:00+17зсз33330 0.0 101343
06:00+16зсз22330 0.0 101316
09:00+21зсз22230 0.0 1013389
12:00+26з44170 0.0 10121116
15:00+28зсз54170 0.0 1011908
18:00+25зсз55200 0.0 1011536
21:00+20зсз44340 0.0 101385